Tiempo cada hora Abanosimovka

Hoy, 27 Octubre, Martes

Tiempo Temperatura Precipitaciones Viento Presión Humedad
00:00 +5°C° 0 mm 3 mps 757 mmHg 88%
01:00 +5°C° 0 mm 3 mps 757 mmHg 89%
02:00 +4°C° 0 mm 3 mps 757 mmHg 91%
03:00 +4°C° 0 mm 3 mps 757 mmHg 92%
04:00 +4°C° 0 mm 3 mps 758 mmHg 92%
05:00 +4°C° 0 mm 3 mps 758 mmHg 92%
06:00 +3°C° 0 mm 3 mps 758 mmHg 93%
07:00 +4°C° 0 mm 3 mps 758 mmHg 90%
08:00 +4°C° 0 mm 3 mps 758 mmHg 87%
09:00 +5°C° 0 mm 4 mps 759 mmHg 84%
10:00 +6°C° 0 mm 4 mps 759 mmHg 79%
11:00 +6°C° 0 mm 4 mps 759 mmHg 74%
12:00 +7°C° 0 mm 4 mps 759 mmHg 69%
13:00 +8°C° 0 mm 4 mps 759 mmHg 68%
14:00 +8°C° 0 mm 4 mps 759 mmHg 66%
15:00 +8°C° 0 mm 4 mps 759 mmHg 64%
16:00 +7°C° 0 mm 4 mps 759 mmHg 66%
17:00 +7°C° 0 mm 3 mps 759 mmHg 68%
18:00 +5°C° 0 mm 3 mps 759 mmHg 70%
19:00 +5°C° 0 mm 4 mps 759 mmHg 69%
20:00 +4°C° 0 mm 4 mps 759 mmHg 68%
21:00 +4°C° 0 mm 4 mps 759 mmHg 66%
22:00 +4°C° 0 mm 4 mps 759 mmHg 66%
23:00 +3°C° 0 mm 4 mps 759 mmHg 66%

Mañana, 28 Octubre, Miércoles

Tiempo Temperatura Precipitaciones Viento Presión Humedad
00:00 +3°C° 0 mm 4 mps 759 mmHg 66%
01:00 +1°C° 0 mm 4 mps 759 mmHg 66%
02:00 +1°C° 0 mm 4 mps 759 mmHg 67%
03:00 +1°C° 0 mm 4 mps 759 mmHg 67%
04:00 0°C° 0 mm 4 mps 759 mmHg 67%
05:00 0°C° 0 mm 4 mps 759 mmHg 66%
06:00 0°C° 0 mm 4 mps 759 mmHg 66%
07:00 0°C° 0 mm 4 mps 759 mmHg 63%
08:00 0°C° 0 mm 4 mps 759 mmHg 61%
09:00 +1°C° 0 mm 4 mps 759 mmHg 59%
10:00 +3°C° 0 mm 4 mps 759 mmHg 56%
11:00 +5°C° 0 mm 4 mps 758 mmHg 54%
12:00 +6°C° 0 mm 4 mps 758 mmHg 51%
13:00 +7°C° 0 mm 4 mps 758 mmHg 51%
14:00 +7°C° 0 mm 4 mps 758 mmHg 51%
15:00 +8°C° 0 mm 4 mps 757 mmHg 50%
16:00 +7°C° 0 mm 4 mps 757 mmHg 53%
17:00 +6°C° 0 mm 4 mps 757 mmHg 57%
18:00 +5°C° 0 mm 4 mps 757 mmHg 60%
19:00 +4°C° 0 mm 3 mps 757 mmHg 58%
20:00 +4°C° 0 mm 3 mps 757 mmHg 55%
21:00 +3°C° 0 mm 3 mps 757 mmHg 52%
22:00 +3°C° 0 mm 3 mps 757 mmHg 53%
23:00 +2°C° 0 mm 3 mps 757 mmHg 53%

Pasado mañana, 29 Octubre, Jueves

Tiempo Temperatura Precipitaciones Viento Presión Humedad
00:00 +2°C° 0 mm 3 mps 757 mmHg 53%
01:00 +2°C° 0 mm 3 mps 757 mmHg 55%
02:00 +1°C° 0 mm 3 mps 757 mmHg 57%
03:00 +1°C° 0 mm 3 mps 757 mmHg 59%
04:00 +1°C° 0 mm 3 mps 757 mmHg 60%
05:00 +1°C° 0 mm 3 mps 757 mmHg 62%
06:00 0°C° 0 mm 3 mps 757 mmHg 63%
07:00 0°C° 0 mm 4 mps 756 mmHg 62%
08:00 +1°C° 0 mm 4 mps 756 mmHg 60%
09:00 +1°C° 0 mm 4 mps 756 mmHg 59%
10:00 +4°C° 0 mm 4 mps 756 mmHg 56%
11:00 +5°C° 0 mm 4 mps 756 mmHg 53%
12:00 +6°C° 0 mm 4 mps 755 mmHg 50%
13:00 +7°C° 0 mm 4 mps 755 mmHg 50%
14:00 +8°C° 0 mm 4 mps 755 mmHg 50%
15:00 +8°C° 0 mm 4 mps 754 mmHg 50%
16:00 +7°C° 0 mm 4 mps 754 mmHg 52%
17:00 +6°C° 0 mm 4 mps 754 mmHg 54%
18:00 +7°C° 0 mm 3 mps 754 mmHg 57%
19:00 +5°C° 0 mm 4 mps 753 mmHg 56%
20:00 +5°C° 0 mm 4 mps 753 mmHg 55%
21:00 +5°C° 0 mm 4 mps 753 mmHg 54%
22:00 +5°C° 0 mm 4 mps 753 mmHg 56%
23:00 +5°C° 0 mm 4 mps 753 mmHg 58%

30 Octubre, Viernes

Tiempo Temperatura Precipitaciones Viento Presión Humedad
00:00 +5°C° 0 mm 4 mps 752 mmHg 59%
01:00 +5°C° 0 mm 4 mps 752 mmHg 62%
02:00 +5°C° 0 mm 4 mps 752 mmHg 64%
03:00 +5°C° 0 mm 4 mps 751 mmHg 66%
04:00 +5°C° 0 mm 4 mps 751 mmHg 66%
05:00 +5°C° 0 mm 4 mps 751 mmHg 67%
06:00 +6°C° 0 mm 4 mps 751 mmHg 67%
07:00 +6°C° 0 mm 4 mps 751 mmHg 69%
08:00 +6°C° 0 mm 4 mps 751 mmHg 71%
09:00 +6°C° 0 mm 5 mps 751 mmHg 73%
10:00 +6°C° 0.1 mm 4 mps 751 mmHg 71%
11:00 +7°C° 0.1 mm 4 mps 751 mmHg 70%
12:00 +7°C° 0.1 mm 4 mps 750 mmHg 69%
13:00 +7°C° 0.1 mm 4 mps 750 mmHg 71%
14:00 +7°C° 0.1 mm 4 mps 750 mmHg 73%
15:00 +7°C° 0.1 mm 4 mps 750 mmHg 76%
16:00 +7°C° 0.2 mm 4 mps 750 mmHg 77%
17:00 +7°C° 0.2 mm 4 mps 749 mmHg 77%
18:00 +8°C° 0.2 mm 3 mps 749 mmHg 78%
19:00 +8°C° 0.5 mm 3 mps 749 mmHg 82%
20:00 +8°C° 0.5 mm 3 mps 749 mmHg 85%
21:00 +8°C° 0.5 mm 3 mps 749 mmHg 88%
22:00 +7°C° 0.3 mm 4 mps 749 mmHg 89%
23:00 +7°C° 0.3 mm 4 mps 748 mmHg 91%

31 Octubre, Sábado

Tiempo Temperatura Precipitaciones Viento Presión Humedad
00:00 +7°C° 0.3 mm 4 mps 748 mmHg 92%
01:00 +7°C° 0.2 mm 4 mps 748 mmHg 92%
02:00 +8°C° 0.2 mm 3 mps 748 mmHg 93%
03:00 +8°C° 0.2 mm 3 mps 748 mmHg 93%
04:00 +8°C° 0.1 mm 3 mps 748 mmHg 93%
05:00 +8°C° 0.1 mm 3 mps 748 mmHg 92%
06:00 +8°C° 0.1 mm 3 mps 748 mmHg 92%
07:00 +8°C° 0.1 mm 3 mps 748 mmHg 92%
08:00 +8°C° 0.1 mm 3 mps 748 mmHg 91%
09:00 +8°C° 0.1 mm 3 mps 749 mmHg 90%
10:00 +8°C° 0 mm 2 mps 749 mmHg 90%
11:00 +8°C° 0 mm 2 mps 749 mmHg 89%
12:00 +8°C° 0 mm 2 mps 750 mmHg 88%
13:00 +8°C° 0 mm 2 mps 750 mmHg 88%
14:00 +9°C° 0 mm 3 mps 750 mmHg 88%
15:00 +9°C° 0 mm 3 mps 750 mmHg 87%
16:00 +8°C° 0 mm 3 mps 751 mmHg 88%
17:00 +8°C° 0 mm 3 mps 751 mmHg 89%
18:00 +8°C° 0 mm 3 mps 751 mmHg 90%
19:00 +8°C° 0 mm 3 mps 752 mmHg 90%
20:00 +8°C° 0 mm 3 mps 752 mmHg 90%
21:00 +8°C° 0 mm 3 mps 752 mmHg 90%
22:00 +7°C° 0 mm 3 mps 753 mmHg 90%
23:00 +7°C° 0 mm 3 mps 753 mmHg 91%

1 Noviembre, Domingo

Tiempo Temperatura Precipitaciones Viento Presión Humedad
00:00 +7°C° 0 mm 3 mps 753 mmHg 91%
01:00 +7°C° 0 mm 3 mps 753 mmHg 91%
02:00 +7°C° 0 mm 3 mps 754 mmHg 92%
03:00 +7°C° 0 mm 3 mps 754 mmHg 92%
04:00 +7°C° 0 mm 3 mps 754 mmHg 92%
05:00 +7°C° 0 mm 3 mps 755 mmHg 92%
06:00 +7°C° 0 mm 3 mps 755 mmHg 92%
07:00 +7°C° 0 mm 3 mps 755 mmHg 91%
08:00 +7°C° 0 mm 3 mps 755 mmHg 91%
09:00 +6°C° 0 mm 4 mps 756 mmHg 90%
10:00 +7°C° 0 mm 4 mps 756 mmHg 88%
11:00 +7°C° 0 mm 4 mps 756 mmHg 85%
12:00 +8°C° 0 mm 4 mps 756 mmHg 83%
13:00 +8°C° 0 mm 4 mps 757 mmHg 82%
14:00 +10°C° 0 mm 4 mps 757 mmHg 81%
15:00 +10°C° 0 mm 4 mps 757 mmHg 81%
16:00 +8°C° 0 mm 4 mps 757 mmHg 82%
17:00 +8°C° 0 mm 4 mps 757 mmHg 83%
18:00 +8°C° 0 mm 4 mps 758 mmHg 85%
19:00 +8°C° 0 mm 4 mps 758 mmHg 85%
20:00 +8°C° 0 mm 4 mps 758 mmHg 85%
21:00 +7°C° 0 mm 4 mps 758 mmHg 85%
22:00 +7°C° 0 mm 4 mps 758 mmHg 86%
23:00 +7°C° 0 mm 4 mps 759 mmHg 86%
Mostrar más

Necesitamos Su Consentimiento

Meteoprog y nuestros Proveedores de Servicios pueden almacenar y acceder a sus datos personales como cookies, identificadores de dispositivo u otras tecnologías similares de su dispositivo y procesar dichos datos para personalizar contenido y anuncios, además de ofrecer funciones de redes sociales y analizar el tráfico.

  • Almacenar y/o acceder a información en su dispositivo

    Se puede almacenar o acceder a cookies, identificadores de dispositivo u otra información de su dispositivo para los fines anteriormente indicados.

  • Anuncios y contenido personalizados, medición de anuncios y contenido, percepciones del público, y desarrollo de productos

    Los anuncios y el contenido pueden personalizarse en base a su perfil. Se pueden añadir más datos para personalizar mejor los anuncios y contenidos. Se puede medir el rendimiento de los anuncios y contenidos. Se puede obtener la percepción sobre el público que ha visto los anuncios y contenidos. Dichos datos pueden usarse para desarrollar o mejorar la experiencia del usuario, sistemas y software.

Al hacer clic en ‘Estoy De Acuerdo’ usted permitirá el uso de las cookies, identificadores de dispositivo, balizas web u otras tecnologías similares indicadas. Su configuración puede cambiarse desde el navegador de su dispositivo.

Para ciertos fines, los intereses legítimos pueden ser considerados por encima del consentimiento. Puede leer más sobre ello en nuestra Política de Privacidad y Cookies.